Regional Weather Roundup
Issued by NWS

Home | Current Version | Previous Version | Graphics & Text | Print | Product List | Glossary On
Versions: 1 2 3 4 5 6 7 8 9 10 11 12 13 14 15 16 17 18 19 20 21 22 23 24 25 26 27 28 29 30 31 32 33 34 35 36 37 38 39 40 41 42 43 44 45 46 47 48 49 50
186
ASUS43 KMPX 231701
RWRMN
WEATHER ROUNDUP FOR MINNESOTA
NATIONAL WEATHER SERVICE TWIN CITIES/CHANHASSEN MN
1200 PM CDT MON OCT 23 2017


NOTE: "FAIR" INDICATES FEW OR NO CLOUDS BELOW 12,000 FEET WITH NO
SIGNIFICANT WEATHER AND/OR OBSTRUCTIONS TO VISIBILITY. N/A MEANS
CURRENT SKY AND/OR WEATHER CONDITIONS ARE NOT AVAILABLE.

MNZ060>063-068>070-231800-
   Twin Cities Metro

CITY           SKY/WX    TMP DP  RH WIND       PRES   REMARKS
TWIN CITIES    MOSUNNY   60  42  51 W14G23    29.78R
ST PAUL        MOSUNNY   59  42  53 NW12      29.78R
CRYSTAL        MOSUNNY   59  38  45 NW17      29.78R
BLAINE         MOSUNNY   61  41  48 W12G17    29.78R
LAKEVILLE      MOSUNNY   57  43  58 W16       29.79S
EDEN PRAIRIE   SUNNY     60  40  47 NW16G22   29.79R
SOUTH ST PAUL  MOSUNNY   60  40  48 NW10      29.78S
LAKE ELMO      FAIR      55  43  62 W8        29.79R
$$
MNZ001>005-007-008-013>017-022>024-027-028-231800-
   Northwest Minnesota

CITY           SKY/WX    TMP DP  RH WIND       PRES   REMARKS
BEMIDJI        CLOUDY    45  39  82 NW20G31   29.78R
HALLOCK        CLOUDY    45  36  70 NW18G26   29.91R
ROSEAU         CLOUDY    45  37  76 NW18G24   29.83R
WARROAD        CLOUDY    45  39  81 NW18G31   29.80R
CROOKSTON      PTSUNNY   46  37  71 NW24      29.91R
FOSSTON        CLOUDY    43  37  81 NW16G30   29.86R
DETROIT LAKES  CLOUDY    45  39  81 NW26G32   29.87R
MOORHEAD       CLOUDY    46  36  66 NW24G31   29.92R
PARK RAPIDS    LGT RAIN  46  39  76 NW24G36   29.78R
MAHNOMEN       CLOUDY    44  37  76 NW16      29.87R
$$
MNZ006-009>011-018-025>026-231800-
   North Central Minnesota

CITY           SKY/WX    TMP DP  RH WIND       PRES   REMARKS
BAUDETTE       LGT RAIN  45  41  86 NW18G28   29.75R
FLAG ISLAND    CLOUDY    45  36  70 NW26      29.78R
INTL FALLS     LGT RAIN  50  47  89 W10       29.67R
WASKISH        CLOUDY    46  41  81 NW17G24   29.75R
BIG FORK       CLOUDY    48  41  76 NW6G17    29.70R
LONGVILLE      CLOUDY    48  39  71 W15G22    29.74R
GRAND RAPIDS   CLOUDY    51  40  65 W15G23    29.72R
CRANE LAKE     CLOUDY    52  45  76 NW9G16    29.66R
ORR            PTSUNNY   54  43  66 W12G18    29.64R
COOK           MOSUNNY   55  43  62 W10       29.67R
WALKER         CLOUDY    45  39  78 NW17G32   29.75R
$$
MNZ012-019>021-037-231800-
   Northeast Minnesota

CITY           SKY/WX    TMP DP  RH WIND       PRES   REMARKS
DULUTH         MOSUNNY   58  43  57 W10G20    29.69R
ELY            CLOUDY    57  41  54 W7        29.65F
HIBBING        MOSUNNY   55  40  56 W12G18    29.67R
EVELETH        SUNNY     58  31  37 W7        29.68R
DULUTH HARBOR  MOSUNNY   61  45  55 SW8       29.69S
TWO HARBORS    SUNNY     63  46  55 S9        29.66S
G MARAIS ARPRT SUNNY     54  37  54 S7        29.67F
$$
MNZ029>031-032-039>041-046>048-054>057-064-231800-
   West Central Minnesota

CITY           SKY/WX    TMP DP  RH WIND       PRES   REMARKS
FERGUS FALLS   CLOUDY    46  36  66 N25G36    29.89R
WHEATON        CLOUDY    46  37  71 NW20G30   29.94R
MORRIS         CLOUDY    48  39  71 NW22G31   29.88R
ALEXANDRIA     CLOUDY    47  40  76 NW18G30   29.84R
ELBOW LAKE     CLOUDY    44  41  88 W25G35    29.88R
WADENA         CLOUDY    45  37  76 NW23G36   29.80R
GLENWOOD       CLOUDY    46  39  76 NW24G33   29.84S
APPLETON       CLOUDY    50  37  62 NW18G33   29.89R
BENSON         CLOUDY    48  37  66 N26G35    29.88S
ORTONVILLE     CLOUDY    48  37  66 NW16G35   29.92R
MADISON        CLOUDY    52  39  62 NW26G35   29.92R
WILLMAR        CLOUDY    52  39  62 NW23G33   29.86R
$$
MNZ033>034-036-042>043-049>051-058-059-231800-
   Central Minnesota

CITY           SKY/WX    TMP DP  RH WIND       PRES   REMARKS
ST CLOUD       MOSUNNY   56  40  55 W18G30    29.78R
SAUK CENTRE    CLOUDY    47  39  73 W15G28    29.82R
PAYNESVILLE    CLOUDY    49  39  66 NW18G28   29.83R
AITKIN         SUNNY     54  37  54 W13G18    29.71R
PINE RIVER     CLOUDY    46  37  71 W12G18    29.79S
BRAINERD       PTSUNNY   52  38  58 W16G23    29.76R
STAPLES        CLOUDY    46  37  71 NW15      29.78S
LONG PRAIRIE   CLOUDY    46  37  71 W13G20    29.81R
LITTLE FALLS   CLOUDY    48  32  53 NW15G28   29.79R
LITCHFIELD     MOSUNNY   55  39  54 W23G30    29.82R
BUFFALO        MOSUNNY   56  37  47 W22G30    29.81R
MAPLE LAKE     SUNNY     56  41  56 W16G30    29.80R
HUTCHINSON     CLOUDY    57  39  52 W17G30    29.83R
$$
MNZ037-044-045-052-053-231800-
   East Central Minnesota

CITY           SKY/WX    TMP DP  RH WIND       PRES   REMARKS
PRINCETON      SUNNY     59  39  47 NW14G25   29.77R
MORA           MOSUNNY   55  37  50 NW8G17    29.77R
CAMBRIDGE      MOSUNNY   61  43  51 W12G23    29.77R
RUSH CITY      CLOUDY    58  42  55 W7        29.75S
MOOSE LAKE     SUNNY     59  39  47 W8        29.70R
HINCKLEY       FAIR      57  43  58 W10       29.73S
CLOQUET        MOSUNNY   57  39  51 W9        29.69S
MCGREGOR       SUNNY     55  41  58 W9G17     29.71R
$$
MNZ071>073-080-081-089-090-097-098-231800-
   Southwest Minnesota

CITY           SKY/WX    TMP DP  RH WIND       PRES   REMARKS
MONTEVIDEO     CLOUDY    52  37  58 N25G35    29.88R
GRANITE FALLS  CLOUDY    54  38  55 NW26G33   29.89S
CANBY          CLOUDY    52  37  56 W23G35    29.94R
MARSHALL       CLOUDY    52  35  52 NW29G40   29.88S
REDWOOD FALLS  PTSUNNY   56  35  45 NW20G35   29.85R
OLIVIA         MOSUNNY   52  36  54 NW24G33   29.84R
PIPESTONE      CLOUDY    52  36  54 NW21G29   29.94R
WORTHINGTON    PTSUNNY   54  38  54 NW25G36   29.91F
JACKSON        SUNNY     55  34  44 NW24G36   29.88F
TRACY          PTSUNNY   56  37  47 NW29G36   29.89S
SLAYTON        PTSUNNY   53  35  50 NW25G35   29.91S
$$
MNZ065>067-074>077-082>085-091>093-231800-
   South Central Minnesota

CITY           SKY/WX    TMP DP  RH WIND       PRES   REMARKS
NEW ULM          N/A     55  36  47 NW23G35   29.84R
ST JAMES       SUNNY     57  36  44 W22G37    29.86S
FAIRMONT       MOSUNNY   57  36  45 NW28      29.86S
GLENCOE        SUNNY     58  39  49 W21G28    29.81R
FARIBAULT      MOSUNNY   57  43  58 W12       29.81S
OWATONNA       CLOUDY    55  43  62 W16       29.82F
WASECA         MOSUNNY   55  41  58 W10G22    29.83F
$$
MNZ078>079-086>088-094>096-231800-
   Southeast Minnesota

CITY           SKY/WX    TMP DP  RH WIND       PRES   REMARKS
ROCHESTER      CLOUDY    51  43  74 W10       29.83R
RED WING       CLOUDY    54  39  58 CALM      29.78R
STANTON        CLOUDY    56  44  62 W7        29.79S
DODGE CENTER   CLOUDY    52  41  66 W7        29.81F
WINONA         CLOUDY    54  41  62 W9        29.77F
AUSTIN         CLOUDY    52  41  66 W7        29.83F
PRESTON        CLOUDY    51  41  68 W17       29.80S
$$
ABBREVIATIONS USED IN REMARKS
   TC - TEMPERATURES IN CELSIUS
  WCI - WIND CHILL INDEX
   HX - HEAT INDEX
  VSB - VISIBILITY
$$




USA.gov is the U.S. government's official web portal to all federal, state and local government web resources and services.